Location: Aufkirchen
(47.9603°N, 11.3653°E)
Time: 11:50:04
(UTC+01:00)

Tiros 1 - Pass Details

Date: 26 November 2020
Orbit: 630 x 663 km, 48.4° (Epoch: 21 January)

Event Time Altitude Azimuth Distance (km) Brightness Sun altitude
Rises 23:24:11 0° 278° (W) 2,963 - -62.1°
Reaches altitude 10° 23:28:00 10° 248° (WSW) 2,038 - -62.3°
Maximum altitude 23:29:43 12° 226° (SW) 1,907 - -62.4°
Drops below altitude 10° 23:31:26 10° 204° (SSW) 2,026 - -62.5°
Sets 23:35:11 0° 174° (S) 2,921 - -62.7°
